• Join FlightAware (Why Join?)
  • Login
  • US Flag GB Flag 
06:01 EDT


 

Airport Tracker/Info


-or-


 

Live Flight TrackerFlight Track Log ✈ N870DC ✈ 10-May-2013 ✈ KMBS - KBTR

Flight Track Log - Related Links

Times and Time Zones

All times are in EDT time to prevent confusion due to time zone crossing. See the N870DC flight status page for this flight to view local times or setup timezone preferences in your user account.

Time Position Orientation Groundspeed Altitude Reporting Facility
EDT Latitude Longitude Course Direction KTS MPH feet Rate Location/Type
14:45 43.4475 -84.0692 218° Southwest 292 336 8,500  Level Cleveland Center
14:46 43.3833 -84.1225 211° Southwest 279 321 11,000 2,340 Climbing Cleveland Center
14:47 43.3106 -84.1839 212° Southwest 290 334 13,200 2,340 Climbing Cleveland Center
14:48 43.2336 -84.2508 212° Southwest 306 352 15,700 2,400 Climbing Cleveland Center
14:49 43.1506 -84.3000 203° Southwest 346 398 18,100 1,620 Climbing Cleveland Center
14:50 42.8883 -84.5022 210° Southwest  Level Estimated
14:50 43.0519 -84.2600 163° South 341 392 19,000  Level Cleveland Center
14:51 42.7942 -84.6017 218° Southwest  Level FlightAware Approximate
14:51 42.9506 -84.2342 169° South 356 410 19,000  Level Cleveland Center
14:52 42.8675 -84.2917 207° Southwest 338 389 20,500 1,920 Climbing Cleveland Center
14:53 42.8075 -84.4042 234° Southwest 317 365 22,900 2,100 Climbing Cleveland Center
14:54 42.7094 -84.4686 206° Southwest 358 412 24,800 1,680 Climbing Cleveland Center
14:55 42.6219 -84.5283 207° Southwest 385 443 26,300 1,680 Climbing Cleveland Center
14:56 42.5258 -84.5928 206° Southwest 390 449 28,200 2,040 Climbing Cleveland Center
14:57 42.4603 -84.6344 205° Southwest 386 444 29,600 1,680 Climbing Chicago Center
14:58 42.3664 -84.6950 205° Southwest 376 433 31,000 1,140 Climbing Chicago Center
14:59 42.2694 -84.7586 206° Southwest 385 443 32,000 480 Climbing Chicago Center
15:00 42.1722 -84.8203 205° Southwest 385 443 32,100 660 Climbing Chicago Center
15:01 42.0769 -84.8819 206° Southwest 381 438 33,400 1,380 Climbing Chicago Center
15:02 41.9681 -84.9528 206° Southwest 379 436 35,000 1,500 Climbing Chicago Center
15:03 41.8744 -85.0131 206° Southwest 374 430 36,500 1,380 Climbing Chicago Center
15:04 41.7819 -85.0722 206° Southwest 368 423 37,900 720 Climbing Chicago Center
15:05 41.6892 -85.1300 205° Southwest 366 421 38,000  Climbing Chicago Center
15:06 41.5919 -85.1903 205° Southwest 376 433 38,000  Level Chicago Center
15:07 41.4933 -85.2525 205° Southwest 384 442 38,000  Level Chicago Center
15:08 41.3975 -85.3144 206° Southwest 381 438 38,000 480 Level Chicago Center
15:09 41.2833 -85.3861 205° Southwest 378 435 39,100 960 Climbing Chicago Center
15:10 41.1892 -85.4442 205° Southwest 374 430 40,000 420 Climbing Chicago Center
15:11 41.0967 -85.5033 206° Southwest 370 426 40,000  Level Chicago Center
15:12 41.0042 -85.5614 205° Southwest 371 427 40,000  Level Chicago Center
15:13 40.9097 -85.6189 205° Southwest 374 430 40,000  Level Chicago Center
15:14 40.8161 -85.6783 206° Southwest 375 432 40,000  Level Chicago Center
15:16 40.7022 -85.7475 205° Southwest 376 433 40,000  Level Chicago Center
15:17 40.6086 -85.8056 205° Southwest 373 429 40,000  Level Chicago Center
15:18 40.5156 -85.8625 205° Southwest 370 426 40,000  Level Chicago Center
15:19 40.4200 -85.9208 205° Southwest 376 433 40,000  Level Chicago Center
15:20 40.3264 -85.9778 205° Southwest 374 430 40,000  Level Chicago Center
15:21 40.2131 -86.0469 205° Southwest 375 432 40,000  Level Chicago Center
15:22 40.1158 -86.1050 205° Southwest 380 437 40,000  Level Indianapolis Center
15:23 40.0214 -86.1619 205° Southwest 380 437 40,000  Level Chicago Center
15:24 39.9253 -86.2194 205° Southwest 382 440 40,000  Level Chicago Center
15:25 39.8258 -86.2797 205° Southwest 385 443 40,000  Level Chicago Center
15:26 39.7272 -86.3400 205° Southwest 390 449 40,000  Level Chicago Center
15:27 39.6183 -86.4033 204° Southwest 393 452 40,000  Level Chicago Center
15:28 39.5200 -86.4614 204° Southwest 392 451 40,000  Level Chicago Center
15:29 39.4200 -86.5214 205° Southwest 396 456 40,000  Level Chicago Center
15:30 39.2997 -86.5900 204° Southwest 396 456 40,000  Level Indianapolis Center
15:31 39.2000 -86.6489 205° Southwest 396 456 40,000  Level Indianapolis Center
15:32 39.0933 -86.7122 205° Southwest 394 453 40,000  Level Indianapolis Center
15:33 38.9928 -86.7689 204° Southwest 394 453 40,000  Level Indianapolis Center
15:34 38.8942 -86.8264 204° Southwest 389 448 40,000  Level Indianapolis Center
15:35 38.7961 -86.8828 204° Southwest 386 444 40,000  Level Indianapolis Center
15:36 38.6792 -86.9503 204° Southwest 384 442 40,000  Level Indianapolis Center
15:37 38.5814 -87.0067 204° Southwest 384 442 40,000  Level Indianapolis Center
15:38 38.4836 -87.0633 204° Southwest 385 443 40,000  Level Indianapolis Center
15:39 38.3956 -87.1136 204° Southwest 388 447 40,000  Level Indianapolis Center
15:40 38.2781 -87.1822 205° Southwest 388 447 40,000  Level Indianapolis Center
15:41 38.1733 -87.2400 203° Southwest 391 450 40,000  Level Indianapolis Center
15:42 38.0744 -87.2964 204° Southwest 389 448 40,000  Level Indianapolis Center
15:43 37.9753 -87.3531 204° Southwest 390 449 40,000  Level Indianapolis Center
15:45 37.8742 -87.4092 204° Southwest 394 453 40,000  Level Indianapolis Center
15:46 37.7653 -87.4703 204° Southwest 395 455 40,000  Level Indianapolis Center
15:47 37.6636 -87.5267 204° Southwest 395 455 40,000  Level Indianapolis Center
15:48 37.5614 -87.5847 204° Southwest 398 458 40,000  Level Indianapolis Center
15:49 37.4594 -87.6417 204° Southwest 398 458 40,000  Level Indianapolis Center
15:50 37.3578 -87.6958 203° Southwest 394 453 40,000  Level Indianapolis Center
15:51 37.2583 -87.7514 204° Southwest 389 448 40,000  Level Indianapolis Center
15:52 37.1589 -87.8075 204° Southwest 388 447 40,000  Level Indianapolis Center
15:53 37.0447 -87.8697 204° Southwest 382 440 40,000  Level Indianapolis Center
15:54 36.9464 -87.9225 203° Southwest 381 438 40,000  Level Indianapolis Center
15:55 36.8492 -87.9772 204° Southwest 381 438 40,000  Level Indianapolis Center
15:56 36.7531 -88.0283 203° Southwest 375 432 40,000 -540 Level Indianapolis Center
15:57 36.6550 -88.0825 204° Southwest 381 438 39,000 -1,020 Descending Indianapolis Center
15:58 36.5658 -88.1325 204° Southwest 374 430 38,000 -540 Descending Memphis Center
15:59 36.4606 -88.1869 203° Southwest 374 430 38,000  Level Memphis Center
16:00 36.3614 -88.2386 203° Southwest 379 436 38,000  Level Memphis Center
16:01 36.2664 -88.2925 205° Southwest 379 436 38,000  Level Memphis Center
16:02 36.1692 -88.3414 202° Southwest 379 436 38,000  Level Memphis Center
16:03 36.0719 -88.3925 203° Southwest 379 436 38,000  Level Memphis Center
16:04 35.9750 -88.4436 203° Southwest 379 436 38,000  Level Memphis Center
16:05 35.8778 -88.4969 204° Southwest 372 428 38,000  Level Memphis Center
16:06 35.7806 -88.5478 203° Southwest 377 434 38,000  Level Memphis Center
16:07 35.6831 -88.5986 203° Southwest 377 434 38,000  Level Memphis Center
16:08 35.5839 -88.6492 203° Southwest 377 434 38,000  Level Memphis Center
16:09 35.4886 -88.7022 204° Southwest 377 434 38,000  Level Memphis Center
16:10 35.3933 -88.7525 203° Southwest 377 434 38,000  Level Memphis Center
16:11 35.2958 -88.8053 204° Southwest 377 434 38,000  Level Memphis Center
16:12 35.1964 -88.8528 201° Southwest 377 434 38,000  Level Memphis Center
16:13 35.0969 -88.9053 203° Southwest 387 445 38,000  Level Memphis Center
16:14 34.9994 -88.9578 204° Southwest 387 445 38,000  Level Memphis Center
16:15 34.8997 -89.0050 201° Southwest 387 445 38,000  Level Memphis Center
16:16 34.8022 -89.0572 204° Southwest 387 445 38,000  Level Memphis Center
16:17 34.7150 -89.1039 204° Southwest 387 445 38,000  Level Memphis Center
16:18 34.6175 -89.1533 203° Southwest 387 445 38,000  Level Memphis Center
16:19 34.5219 -89.2025 203° Southwest 382 440 38,000  Level Memphis Center
16:20 34.4264 -89.2517 203° Southwest 371 427 38,000  Level Memphis Center
16:21 34.3289 -89.3008 203° Southwest 376 433 38,000  Level Memphis Center
16:22 34.2269 -89.3547 204° Southwest 376 433 38,000  Level Memphis Center
16:23 34.1336 -89.4011 202° Southwest 371 427 38,000  Level Memphis Center
16:24 34.0400 -89.4472 202° Southwest 371 427 38,000  Level Memphis Center
16:25 33.9464 -89.4983 204° Southwest 371 427 38,000  Level Memphis Center
16:26 33.8528 -89.5442 202° Southwest 371 427 38,000  Level Memphis Center
16:27 33.7739 -89.5875 205° Southwest 365 420 38,000  Level Memphis Center
16:28 33.6697 -89.6408 203° Southwest 365 420 38,000  Level Memphis Center
16:29 33.5781 -89.6864 202° Southwest 360 414 38,000  Level Memphis Center
16:30 33.4844 -89.7344 203° Southwest 360 414 38,000  Level Memphis Center
16:31 33.3908 -89.7800 202° Southwest 365 420 38,000  Level Memphis Center
16:32 33.2969 -89.8253 202° Southwest 365 420 38,000  Level Memphis Center
16:33 33.2011 -89.8731 203° Southwest 371 427 38,000  Level Memphis Center
16:34 33.1094 -89.9208 204° Southwest 371 427 38,000 -480 Level Memphis Center
16:35 33.0117 -89.9658 201° Southwest 377 434 37,100 -960 Descending Memphis Center
16:36 32.9219 -90.0158 205° Southwest 377 434 36,100 -600 Descending Memphis Center
16:37 32.8239 -90.0581 200° South 382 440 36,000 -60 Descending Memphis Center
16:38 32.7239 -90.1053 202° Southwest 382 440 36,000 -60 Level Memphis Center
16:39 32.6236 -90.1550 203° Southwest 382 440 35,900 -540 Descending Memphis Center
16:40 32.5214 -90.2044 202° Southwest 392 451 35,000 -480 Descending Memphis Center
16:41 32.4233 -90.2514 202° Southwest 392 451 35,000  Level Memphis Center
16:42 32.3233 -90.2983 202° Southwest 392 451 35,000  Level Memphis Center
16:43 32.2211 -90.3500 203° Southwest 392 451 35,000 -540 Level Memphis Center
16:44 32.1228 -90.3967 202° Southwest 392 451 34,000 -1,020 Descending Memphis Center
16:45 32.0228 -90.4456 203° Southwest 392 451 33,000 -1,080 Descending Memphis Center
16:47 31.8042 -90.5500 202° Southwest 404 465 30,800 -1,080 Descending Houston Center
16:48 31.6975 -90.5903 198° South 406 467 29,600 -1,680 Descending Houston Center
16:49 31.5889 -90.6017 185° South 397 457 27,400 -2,400 Descending Houston Center
16:50 31.4619 -90.6194 187° South 386 444 24,700 -2,400 Descending Houston Center
16:51 31.3614 -90.6281 184° South 371 427 22,500 -2,040 Descending Houston Center
16:52 31.2747 -90.6753 205° Southwest 356 410 20,500 -2,040 Descending Houston Center
16:53 31.1983 -90.7342 213° Southwest 337 388 18,400 -2,040 Descending Houston Center
16:54 31.1453 -90.8172 233° Southwest 324 373 16,400 -2,100 Descending Houston Center
16:55 31.0675 -90.8936 220° Southwest 325 374 14,100 -2,040 Descending Houston Center
16:56 30.9892 -90.9331 203° Southwest 310 357 12,300 -1,800 Descending Houston Center
16:57 30.9167 -90.9792 209° Southwest 304 350 10,400 -1,800 Descending Houston Center
16:58 30.8550 -91.0322 216° Southwest 285 328 8,600 -1,740 Descending Houston Center
16:59 30.7942 -91.0819 215° Southwest 273 314 6,900 -1,680 Descending Houston Center
17:00 30.7472 -91.1478 230° Southwest 258 297 5,200 -1,680 Descending Houston Center
17:01 30.7031 -91.2217 235° Southwest 245 282 3,500 -1,140 Descending Houston Center
17:02 30.6667 -91.2747 231° Southwest 236 272 2,900 -900 Descending Houston Center
17:04 30.6014 -91.2358 153° Southeast 240 276 1,700 -960 Descending Houston Center
17:05 30.5686 -91.1947 133° Southeast 208 239 1,000 -600 Descending Houston Center
17:06 30.5403 -91.1622 135° Southeast 191 220 500 -540 Descending Houston Center
17:08 30.5329 -91.1499 199° South  Level Estimated